Simultaneous Nadir Overpasses (SNOs) Predictions

Prediction of SNOs between GOES-16 and NOAA-20 Satellite Orbit:

Table of predicted SNOs for the next 14.0 days since TLE Epoch: 5/2/2020
Index Date Time (GOES-16) GOES-16 Lat,Lon NOAA-20 Lat,Lon Distance(km) Time Diff (sec)
1 05/03/2020 06:45:20 -0.01, -75.19 0.96, -79.55 496.98 80
2 05/04/2020 06:23:56 -0.01, -75.20 -0.07, -75.03 19.69 80
3 05/06/2020 18:27:06 0.01, -75.21 -0.13, -75.80 67.09 80
4 05/07/2020 18:11:02 0.01, -75.22 0.90, -71.27 450.07 80
5 05/09/2020 06:32:49 -0.01, -75.23 0.27, -76.54 149.27 80
6 05/10/2020 06:11:25 -0.01, -75.24 -0.76, -72.02 367.97 80
7 05/11/2020 18:33:20 0.01, -75.25 -0.47, -77.31 234.85 80
8 05/12/2020 18:17:16 0.01, -75.27 0.56, -72.78 283.02 80
9 05/14/2020 06:39:03 -0.00, -75.29 0.61, -78.06 314.83 80
10 05/15/2020 06:17:38 -0.00, -75.31 -0.42, -73.53 203.36 80




NCC Satellite Simultaneous Nadir Overpasses (SNOs) Prediction Service
